OE6ACM-14 Weather Reports


time (UTC)temp
C
wind
direction
speed
KPH
gust
KPH
rain 1hr
cm
rain 24hr
cm
rain mn
cm
humidity
%
barometer
mb
20260507145312 11 0.0 0.0 0.00 0.00 0.00 66 923.8
20260507144812 11 0.0 0.0 0.00 0.00 0.00 67 923.8
20260507144312 11 0.0 0.0 0.00 0.00 0.00 64 923.9
20260507143812 12 0.0 0.0 0.00 0.00 0.00 58 923.7
20260507143312 13 0.0 0.0 0.00 0.00 0.00 52 923.6
20260507142812 13 0.0 0.0 0.00 0.00 0.00 51 923.7
20260507142312 15 0.0 0.0 0.00 0.00 0.00 49 923.5
20260507141812 15 0.0 0.0 0.00 0.00 0.00 49 923.4
20260507141312 16 0.0 0.0 0.00 0.00 0.00 49 923.2
20260507140812 15 0.0 0.0 0.00 0.00 0.00 51 923.2
20260507140312 14 0.0 0.0 0.00 0.00 0.00 55 923.3
20260507135812 14 0.0 0.0 0.00 0.00 0.00 54 923.3
20260507135312 14 0.0 0.0 0.00 0.00 0.00 57 923.3
20260507134812 13 0.0 0.0 0.00 0.00 0.00 57 923.3
20260507134312 13 0.0 0.0 0.00 0.00 0.00 59 923.2
20260507133812 13 0.0 0.0 0.00 0.00 0.00 61 923.1
20260507133312 12 0.0 0.0 0.00 0.00 0.00 65 923.2
20260507132812 11 0.0 0.0 0.00 0.00 0.00 69 923.3
20260507132312 11 0.0 0.0 0.00 0.00 0.00 65 923.4
20260507131812 12 0.0 0.0 0.00 0.00 0.00 56 923.2
20260507131312 15 0.0 0.0 0.00 0.00 0.00 47 922.8
20260507130812 16 0.0 0.0 0.00 0.00 0.00 42 922.5
20260507130312 17 0.0 0.0 0.00 0.00 0.00 40 922.3
20260507125812 18 0.0 0.0 0.00 0.00 0.00 39 922.4
20260507125312 19 0.0 0.0 0.00 0.00 0.00 37 922.3
20260507124812 21 0.0 0.0 0.00 0.00 0.00 37 922.2
20260507124312 20 0.0 0.0 0.00 0.00 0.00 38 922.3
20260507123812 18 0.0 0.0 0.00 0.00 0.00 40 922.4
20260507123312 18 0.0 0.0 0.00 0.00 0.00 40 922.4
20260507122812 18 0.0 0.0 0.00 0.00 0.00 40 922.5
20260507122312 19 0.0 0.0 0.00 0.00 0.00 40 922.5
20260507121812 18 0.0 0.0 0.00 0.00 0.00 42 922.5
20260507121312 17 0.0 0.0 0.00 0.00 0.00 42 922.5
20260507120812 17 0.0 0.0 0.00 0.00 0.00 42 922.5
20260507120312 17 0.0 0.0 0.00 0.00 0.00 44 922.6
20260507115812 17 0.0 0.0 0.00 0.00 0.00 42 922.6
20260507115312 18 0.0 0.0 0.00 0.00 0.00 44 922.6
20260507114812 17 0.0 0.0 0.00 0.00 0.00 47 922.7
20260507114312 15 0.0 0.0 0.00 0.00 0.00 54 923.1
20260507113812 14 0.0 0.0 0.00 0.00 0.00 52 923.1
20260507113312 15 0.0 0.0 0.00 0.00 0.00 51 922.9
20260507112812 15 0.0 0.0 0.00 0.00 0.00 45 922.9
20260507112312 16 0.0 0.0 0.00 0.00 0.00 40 922.8
20260507111812 17 0.0 0.0 0.00 0.00 0.00 39 922.6
20260507111312 17 0.0 0.0 0.00 0.00 0.00 38 922.4
20260507110812 18 0.0 0.0 0.00 0.00 0.00 37 922.4
20260507110312 19 0.0 0.0 0.00 0.00 0.00 37 922.4
20260507105812 19 0.0 0.0 0.00 0.00 0.00 37 922.4
20260507105312 18 0.0 0.0 0.00 0.00 0.00 38 922.4
20260507104812 18 0.0 0.0 0.00 0.00 0.00 38 922.5
20260507104312 18 0.0 0.0 0.00 0.00 0.00 38 922.6
20260507103812 19 0.0 0.0 0.00 0.00 0.00 37 922.7
20260507103312 19 0.0 0.0 0.00 0.00 0.00 37 922.7
20260507102812 19 0.0 0.0 0.00 0.00 0.00 37 922.7
20260507102312 20 0.0 0.0 0.00 0.00 0.00 36 922.7
20260507101812 20 0.0 0.0 0.00 0.00 0.00 36 922.8
20260507101312 20 0.0 0.0 0.00 0.00 0.00 37 922.9
20260507100812 20 0.0 0.0 0.00 0.00 0.00 37 922.9
20260507100312 21 0.0 0.0 0.00 0.00 0.00 35 922.9
20260507095812 21 0.0 0.0 0.00 0.00 0.00 35 923.0
20260507095312 22 0.0 0.0 0.00 0.00 0.00 35 923.0
20260507094812 23 0.0 0.0 0.00 0.00 0.00 33 923.0
20260507094312 25 0.0 0.0 0.00 0.00 0.00 30 922.9
20260507093812 24 0.0 0.0 0.00 0.00 0.00 33 922.9
20260507093312 21 0.0 0.0 0.00 0.00 0.00 37 923.1
20260507092812 21 0.0 0.0 0.00 0.00 0.00 37 923.1
20260507092312 20 0.0 0.0 0.00 0.00 0.00 38 923.1
20260507091812 21 0.0 0.0 0.00 0.00 0.00 36 923.0
20260507091312 22 0.0 0.0 0.00 0.00 0.00 35 922.9
20260507090439 23 0.0 0.0 0.00 0.00 0.00 34 922.9
20260507085939 21 0.0 0.0 0.00 0.00 0.00 39 922.9
20260507085439 19 0.0 0.0 0.00 0.00 0.00 41 923.0
20260507084939 18 0.0 0.0 0.00 0.00 0.00 40 923.1
20260507084439 19 0.0 0.0 0.00 0.00 0.00 38 923.1
20260507083939 19 0.0 0.0 0.00 0.00 0.00 39 923.0
20260507083439 18 0.0 0.0 0.00 0.00 0.00 38 923.1
20260507082939 18 0.0 0.0 0.00 0.00 0.00 38 923.1
20260507082439 21 0.0 0.0 0.00 0.00 0.00 33 922.9
20260507081939 24 0.0 0.0 0.00 0.00 0.00 29 922.8
20260507081439 30 0.0 0.0 0.00 0.00 0.00 23 922.6
20260507080939 27 0.0 0.0 0.00 0.00 0.00 27 922.7
20260507080439 25 0.0 0.0 0.00 0.00 0.00 30 922.7
20260507075939 21 0.0 0.0 0.00 0.00 0.00 35 922.8
20260507075439 23 0.0 0.0 0.00 0.00 0.00 31 922.7
20260507074939 23 0.0 0.0 0.00 0.00 0.00 29 922.7
20260507074439 21 0.0 0.0 0.00 0.00 0.00 30 922.7
20260507073939 23 0.0 0.0 0.00 0.00 0.00 27 922.7
20260507073439 26 0.0 0.0 0.00 0.00 0.00 25 922.6
20260507072939 30 0.0 0.0 0.00 0.00 0.00 21 922.4
20260507072439 30 0.0 0.0 0.00 0.00 0.00 21 922.4
20260507071939 30 0.0 0.0 0.00 0.00 0.00 21 922.4
20260507071439 31 0.0 0.0 0.00 0.00 0.00 20 922.4
20260507070939 32 0.0 0.0 0.00 0.00 0.00 20 922.4
20260507070439 30 0.0 0.0 0.00 0.00 0.00 23 922.3
20260507065939 25 0.0 0.0 0.00 0.00 0.00 28 922.4
20260507065439 23 0.0 0.0 0.00 0.00 0.00 31 922.4
20260507064939 22 0.0 0.0 0.00 0.00 0.00 34 922.3
20260507064439 20 0.0 0.0 0.00 0.00 0.00 39 922.4
20260507063939 18 0.0 0.0 0.00 0.00 0.00 43 922.5
20260507063439 17 0.0 0.0 0.00 0.00 0.00 45 922.5
20260507062939 16 0.0 0.0 0.00 0.00 0.00 46 922.5
20260507062439 15 0.0 0.0 0.00 0.00 0.00 46 922.6
20260507061939 15 0.0 0.0 0.00 0.00 0.00 48 922.6
20260507061439 15 0.0 0.0 0.00 0.00 0.00 50 922.6
20260507060939 14 0.0 0.0 0.00 0.00 0.00 48 922.5
20260507060439 14 0.0 0.0 0.00 0.00 0.00 45 922.5
20260507055939 13 0.0 0.0 0.00 0.00 0.00 45 922.4
20260507055439 13 0.0 0.0 0.00 0.00 0.00 45 922.3
20260507054939 13 0.0 0.0 0.00 0.00 0.00 46 922.4
20260507054439 13 0.0 0.0 0.00 0.00 0.00 46 922.4
20260507053939 13 0.0 0.0 0.00 0.00 0.00 47 922.4
20260507053439 13 0.0 0.0 0.00 0.00 0.00 48 922.4
20260507052939 12 0.0 0.0 0.00 0.00 0.00 48 922.4
20260507052439 12 0.0 0.0 0.00 0.00 0.00 48 922.4
20260507051939 12 0.0 0.0 0.00 0.00 0.00 49 922.4
20260507051439 12 0.0 0.0 0.00 0.00 0.00 50 922.5
20260507050939 12 0.0 0.0 0.00 0.00 0.00 52 922.5
20260507050439 12 0.0 0.0 0.00 0.00 0.00 54 922.5
20260507045939 12 0.0 0.0 0.00 0.00 0.00 54 922.5
20260507045439 12 0.0 0.0 0.00 0.00 0.00 56 922.5
20260507044939 12 0.0 0.0 0.00 0.00 0.00 55 922.4
20260507044439 12 0.0 0.0 0.00 0.00 0.00 54 922.3
20260507043939 12 0.0 0.0 0.00 0.00 0.00 55 922.2
20260507043439 11 0.0 0.0 0.00 0.00 0.00 57 922.2
20260507042939 11 0.0 0.0 0.00 0.00 0.00 59 922.2
20260507042439 11 0.0 0.0 0.00 0.00 0.00 60 922.1
20260507041939 11 0.0 0.0 0.00 0.00 0.00 62 922.1
20260507041439 11 0.0 0.0 0.00 0.00 0.00 63 922.1
20260507040939 11 0.0 0.0 0.00 0.00 0.00 64 922.2
20260507040439 11 0.0 0.0 0.00 0.00 0.00 65 922.2
20260507035939 10 0.0 0.0 0.00 0.00 0.00 66 922.2
20260507035439 10 0.0 0.0 0.00 0.00 0.00 67 922.1
20260507034939 10 0.0 0.0 0.00 0.00 0.00 66 922.0
20260507034439 10 0.0 0.0 0.00 0.00 0.00 67 922.0
20260507033939 10 0.0 0.0 0.00 0.00 0.00 68 921.9
20260507033439 10 0.0 0.0 0.00 0.00 0.00 68 921.9
20260507032939 10 0.0 0.0 0.00 0.00 0.00 69 921.9
20260507032439 10 0.0 0.0 0.00 0.00 0.00 67 921.7
20260507031939 10 0.0 0.0 0.00 0.00 0.00 65 921.7
20260507031439 10 0.0 0.0 0.00 0.00 0.00 66 921.7
20260507030939 10 0.0 0.0 0.00 0.00 0.00 66 921.7
20260507030439 11 0.0 0.0 0.00 0.00 0.00 65 921.7
20260507025939 10 0.0 0.0 0.00 0.00 0.00 67 921.7
20260507025439 10 0.0 0.0 0.00 0.00 0.00 68 921.6
20260507024939 10 0.0 0.0 0.00 0.00 0.00 68 921.7
20260507024439 10 0.0 0.0 0.00 0.00 0.00 67 921.5
20260507023939 10 0.0 0.0 0.00 0.00 0.00 67 921.4
20260507023439 10 0.0 0.0 0.00 0.00 0.00 66 921.5
20260507022939 10 0.0 0.0 0.00 0.00 0.00 66 921.5
20260507022439 10 0.0 0.0 0.00 0.00 0.00 67 921.5
20260507021939 10 0.0 0.0 0.00 0.00 0.00 67 921.5
20260507021439 10 0.0 0.0 0.00 0.00 0.00 67 921.5
20260507020939 10 0.0 0.0 0.00 0.00 0.00 68 921.5
20260507020439 10 0.0 0.0 0.00 0.00 0.00 67 921.4
20260507015939 10 0.0 0.0 0.00 0.00 0.00 68 921.4
20260507015439 10 0.0 0.0 0.00 0.00 0.00 68 921.3
20260507014939 10 0.0 0.0 0.00 0.00 0.00 66 921.3
20260507014439 10 0.0 0.0 0.00 0.00 0.00 66 921.3
20260507013939 10 0.0 0.0 0.00 0.00 0.00 66 921.2
20260507013439 10 0.0 0.0 0.00 0.00 0.00 66 921.3
20260507012939 10 0.0 0.0 0.00 0.00 0.00 65 921.3
20260507012439 11 0.0 0.0 0.00 0.00 0.00 65 921.2
20260507011939 11 0.0 0.0 0.00 0.00 0.00 65 921.1
20260507011439 10 0.0 0.0 0.00 0.00 0.00 66 921.1
20260507010939 10 0.0 0.0 0.00 0.00 0.00 66 921.1
20260507010439 11 0.0 0.0 0.00 0.00 0.00 65 921.1
20260507005939 11 0.0 0.0 0.00 0.00 0.00 63 921.0
20260507005439 11 0.0 0.0 0.00 0.00 0.00 63 920.9
20260507004939 11 0.0 0.0 0.00 0.00 0.00 64 921.0
20260507004439 11 0.0 0.0 0.00 0.00 0.00 65 921.0
20260507003939 11 0.0 0.0 0.00 0.00 0.00 65 920.9
20260507003439 11 0.0 0.0 0.00 0.00 0.00 65 920.9
20260507002939 11 0.0 0.0 0.00 0.00 0.00 63 920.8
20260507002439 11 0.0 0.0 0.00 0.00 0.00 62 920.7
20260507001939 11 0.0 0.0 0.00 0.00 0.00 63 920.7
20260507001439 11 0.0 0.0 0.00 0.00 0.00 63 920.8
20260507000939 11 0.0 0.0 0.00 0.00 0.00 63 920.7
20260507000439 11 0.0 0.0 0.00 0.00 0.00 62 920.7
20260506235939 12 0.0 0.0 0.00 0.00 0.00 61 920.7
20260506235439 12 0.0 0.0 0.00 0.00 0.00 61 920.7
20260506234939 12 0.0 0.0 0.00 0.00 0.00 61 920.7
20260506234439 12 0.0 0.0 0.00 0.00 0.00 61 920.7
20260506233939 12 0.0 0.0 0.00 0.00 0.00 60 920.7
20260506233439 12 0.0 0.0 0.00 0.00 0.00 61 920.7
20260506232939 12 0.0 0.0 0.00 0.00 0.00 61 920.6
20260506232439 12 0.0 0.0 0.00 0.00 0.00 61 920.6
20260506231939 12 0.0 0.0 0.00 0.00 0.00 61 920.6
20260506231439 12 0.0 0.0 0.00 0.00 0.00 60 920.6
20260506230939 12 0.0 0.0 0.00 0.00 0.00 60 920.6
20260506230439 12 0.0 0.0 0.00 0.00 0.00 60 920.6
20260506225939 12 0.0 0.0 0.00 0.00 0.00 59 920.6
20260506225439 12 0.0 0.0 0.00 0.00 0.00 59 920.5
20260506224939 12 0.0 0.0 0.00 0.00 0.00 60 920.4
20260506224439 12 0.0 0.0 0.00 0.00 0.00 60 920.4
20260506223939 13 0.0 0.0 0.00 0.00 0.00 59 920.5
20260506223439 12 0.0 0.0 0.00 0.00 0.00 59 920.5
20260506222939 13 0.0 0.0 0.00 0.00 0.00 58 920.5
20260506222439 13 0.0 0.0 0.00 0.00 0.00 58 920.5
20260506221939 13 0.0 0.0 0.00 0.00 0.00 58 920.5
20260506221439 13 0.0 0.0 0.00 0.00 0.00 57 920.4
20260506220939 13 0.0 0.0 0.00 0.00 0.00 57 920.3
20260506220439 13 0.0 0.0 0.00 0.00 0.00 57 920.4
20260506215939 13 0.0 0.0 0.00 0.00 0.00 57 920.4
20260506215439 13 0.0 0.0 0.00 0.00 0.00 57 920.3
20260506214939 13 0.0 0.0 0.00 0.00 0.00 56 920.2
20260506214439 13 0.0 0.0 0.00 0.00 0.00 56 920.2
20260506213939 13 0.0 0.0 0.00 0.00 0.00 55 920.1
20260506213439 13 0.0 0.0 0.00 0.00 0.00 54 920.0
20260506212939 14 0.0 0.0 0.00 0.00 0.00 54 920.0
20260506212439 14 0.0 0.0 0.00 0.00 0.00 54 920.0
20260506211939 14 0.0 0.0 0.00 0.00 0.00 54 920.1
20260506211439 14 0.0 0.0 0.00 0.00 0.00 53 920.1
20260506210939 14 0.0 0.0 0.00 0.00 0.00 53 920.0
20260506210439 14 0.0 0.0 0.00 0.00 0.00 53 920.1
20260506205939 14 0.0 0.0 0.00 0.00 0.00 53 920.1
20260506205439 14 0.0 0.0 0.00 0.00 0.00 53 920.1
20260506204939 14 0.0 0.0 0.00 0.00 0.00 54 920.1
20260506204439 14 0.0 0.0 0.00 0.00 0.00 53 920.0
20260506203939 14 0.0 0.0 0.00 0.00 0.00 53 920.0
20260506203439 14 0.0 0.0 0.00 0.00 0.00 53 920.0
20260506202939 14 0.0 0.0 0.00 0.00 0.00 53 919.9
20260506202439 14 0.0 0.0 0.00 0.00 0.00 52 919.9
20260506201939 15 0.0 0.0 0.00 0.00 0.00 51 919.7
20260506201439 15 0.0 0.0 0.00 0.00 0.00 52 919.8
20260506200939 14 0.0 0.0 0.00 0.00 0.00 52 919.7
20260506200439 15 0.0 0.0 0.00 0.00 0.00 52 919.7
20260506195939 15 0.0 0.0 0.00 0.00 0.00 52 919.8
20260506195439 15 0.0 0.0 0.00 0.00 0.00 51 919.7
20260506194939 15 0.0 0.0 0.00 0.00 0.00 51 919.6
20260506194439 15 0.0 0.0 0.00 0.00 0.00 51 919.5
20260506193939 15 0.0 0.0 0.00 0.00 0.00 50 919.5
20260506193439 15 0.0 0.0 0.00 0.00 0.00 49 919.5
20260506192939 15 0.0 0.0 0.00 0.00 0.00 49 919.4
20260506192439 15 0.0 0.0 0.00 0.00 0.00 49 919.4
20260506191939 15 0.0 0.0 0.00 0.00 0.00 50 919.4
20260506191439 15 0.0 0.0 0.00 0.00 0.00 50 919.4
20260506190939 15 0.0 0.0 0.00 0.00 0.00 50 919.3
20260506190439 15 0.0 0.0 0.00 0.00 0.00 51 919.3
20260506185939 15 0.0 0.0 0.00 0.00 0.00 52 919.2
20260506185439 15 0.0 0.0 0.00 0.00 0.00 56 919.1
20260506184939 15 0.0 0.0 0.00 0.00 0.00 55 919.0
20260506184439 15 0.0 0.0 0.00 0.00 0.00 56 918.9
20260506183939 15 0.0 0.0 0.00 0.00 0.00 55 918.8
20260506183439 15 0.0 0.0 0.00 0.00 0.00 56 918.7
20260506182939 15 0.0 0.0 0.00 0.00 0.00 55 918.6
20260506182439 15 0.0 0.0 0.00 0.00 0.00 54 918.5
20260506181939 16 0.0 0.0 0.00 0.00 0.00 53 918.5
20260506181439 16 0.0 0.0 0.00 0.00 0.00 52 918.3
20260506180939 16 0.0 0.0 0.00 0.00 0.00 51 918.3
20260506180439 16 0.0 0.0 0.00 0.00 0.00 51 918.2
20260506175939 16 0.0 0.0 0.00 0.00 0.00 51 918.1
20260506175439 16 0.0 0.0 0.00 0.00 0.00 50 918.1
20260506174939 16 0.0 0.0 0.00 0.00 0.00 49 918.1
20260506174439 16 0.0 0.0 0.00 0.00 0.00 49 918.0
20260506173939 16 0.0 0.0 0.00 0.00 0.00 48 918.0
20260506173439 16 0.0 0.0 0.00 0.00 0.00 48 918.1
20260506172939 16 0.0 0.0 0.00 0.00 0.00 48 918.1
20260506172439 16 0.0 0.0 0.00 0.00 0.00 48 918.0
20260506171939 17 0.0 0.0 0.00 0.00 0.00 47 918.2
20260506171439 17 0.0 0.0 0.00 0.00 0.00 47 918.0
20260506170939 17 0.0 0.0 0.00 0.00 0.00 46 918.0
20260506170439 17 0.0 0.0 0.00 0.00 0.00 46 917.9
20260506165939 17 0.0 0.0 0.00 0.00 0.00 46 918.0
20260506165439 17 0.0 0.0 0.00 0.00 0.00 46 918.0
20260506164939 17 0.0 0.0 0.00 0.00 0.00 45 918.0
20260506164439 17 0.0 0.0 0.00 0.00 0.00 44 918.0
20260506163939 18 0.0 0.0 0.00 0.00 0.00 44 918.0
20260506163439 18 0.0 0.0 0.00 0.00 0.00 44 918.0
20260506162939 18 0.0 0.0 0.00 0.00 0.00 44 918.1
20260506162439 18 0.0 0.0 0.00 0.00 0.00 44 918.1
20260506161939 18 0.0 0.0 0.00 0.00 0.00 43 918.1
20260506161439 18 0.0 0.0 0.00 0.00 0.00 43 918.2
20260506160939 18 0.0 0.0 0.00 0.00 0.00 43 918.2
20260506160439 18 0.0 0.0 0.00 0.00 0.00 43 918.3
20260506155939 18 0.0 0.0 0.00 0.00 0.00 44 918.3
20260506155439 18 0.0 0.0 0.00 0.00 0.00 42 918.3
20260506154939 19 0.0 0.0 0.00 0.00 0.00 41 918.4
20260506154439 20 0.0 0.0 0.00 0.00 0.00 40 918.3
20260506153939 20 0.0 0.0 0.00 0.00 0.00 39 918.3
20260506153439 19 0.0 0.0 0.00 0.00 0.00 41 918.3
20260506152939 19 0.0 0.0 0.00 0.00 0.00 40 918.4
20260506152439 20 0.0 0.0 0.00 0.00 0.00 40 918.4
20260506151939 20 0.0 0.0 0.00 0.00 0.00 39 918.4
20260506151439 20 0.0 0.0 0.00 0.00 0.00 38 918.3
20260506150939 20 0.0 0.0 0.00 0.00 0.00 39 918.4
20260506150439 19 0.0 0.0 0.00 0.00 0.00 39 918.4
20260506145939 20 0.0 0.0 0.00 0.00 0.00 37 918.3